Regional Weather Roundup
Issued by NWS

Home | Current Version | Previous Version | Graphics & Text | Print | Product List | Glossary Off
Versions: 1 2 3 4 5 6 7 8 9 10 11 12 13 14 15 16 17 18 19 20 21 22 23 24 25 26 27 28 29 30 31 32 33 34 35 36 37 38 39 40 41 42 43 44 45 46 47 48 49 50

000
ASUS43 KMPX 181510
RWRMN
WEATHER ROUNDUP FOR MINNESOTA
NATIONAL WEATHER SERVICE TWIN CITIES/CHANHASSEN MN
1000 AM CDT MON SEP 18 2017


NOTE: "FAIR" INDICATES FEW OR NO CLOUDS BELOW 12,000 FEET WITH NO
SIGNIFICANT WEATHER AND/OR OBSTRUCTIONS TO VISIBILITY. N/A MEANS
CURRENT SKY AND/OR WEATHER CONDITIONS ARE NOT AVAILABLE.

MNZ060>063-068>070-181600-
   Twin Cities Metro

CITY           SKY/WX    TMP DP  RH WIND       PRES   REMARKS
TWIN CITIES    LGT RAIN  55  53  93 SE10      30.06F
ST PAUL        LGT RAIN  56  52  86 SE12      30.07F
CRYSTAL        LGT RAIN  56  48  74 SE6       30.05F
BLAINE         LGT RAIN  57  54  88 CALM      30.07F
LAKEVILLE      DRIZZLE   54  54 100 SE5       30.07F
EDEN PRAIRIE   LGT RAIN  55  52  89 S10       30.05F FOG
SOUTH ST PAUL  LGT RAIN  55  51  84 SE6       30.07F
LAKE ELMO      LGT RAIN  55  52  88 SE7       30.09F
$$
MNZ001>005-007-008-013>017-022>024-027-028-181600-
   Northwest Minnesota

CITY           SKY/WX    TMP DP  RH WIND       PRES   REMARKS
BEMIDJI        MOSUNNY   57  46  67 SE12G17   30.01F
HALLOCK        PTSUNNY   55  50  82 S9        29.94F
ROSEAU         MOSUNNY   55  46  71 S13       29.98S
WARROAD        MOSUNNY   57  48  72 S7        29.99S
THIEF RVR FALL SUNNY     58  47  66 SE10      29.97F
CROOKSTON      MOSUNNY   57  48  72 SE9       29.95S
FOSSTON        PTSUNNY   57  52  82 SE9       29.98S
DETROIT LAKES  MOSUNNY   55  48  76 SE14      29.98F
MOORHEAD       CLOUDY    61  48  63 SE10G20   29.93F
PARK RAPIDS    CLOUDY    56  47  71 SE14      30.00F
MAHNOMEN       FAIR      58  48  69 SE10G18   29.96S
$$
MNZ006-009>011-018-025>026-181600-
   North Central Minnesota

CITY           SKY/WX    TMP DP  RH WIND       PRES   REMARKS
BAUDETTE       CLOUDY    52  47  83 S7        30.01F
FLAG ISLAND    SUNNY     57  48  72 S6        29.99S
INTL FALLS     CLOUDY    51  45  79 VRB5      30.05S
WASKISH        MOSUNNY   57  46  67 SE10      30.02S
BIG FORK       MOSUNNY   55  46  71 S5        30.06S
LONGVILLE      PTSUNNY   54  48  82 SE6       30.04S
GRAND RAPIDS   MOSUNNY   51  46  83 SE9       30.09R
CRANE LAKE     CLOUDY    48  46  93 S3        30.10R
ORR            CLOUDY    50  45  81 CALM      30.05S
COOK           CLOUDY    52  46  82 SE6       30.07F
WALKER         FAIR      56  48  73 SE10      30.02F
$$
MNZ012-019>021-037-181600-
   Northeast Minnesota

CITY           SKY/WX    TMP DP  RH WIND       PRES   REMARKS
DULUTH         CLOUDY    52  47  83 SE12      30.10S
ELY            CLOUDY    50  45  81 S5        30.10S
HIBBING        CLOUDY    50  48  93 SE9       30.08F
EVELETH        CLOUDY    50  47  91 SE3       30.10F
DULUTH HARBOR  CLOUDY    55  48  76 CALM      30.12S
TWO HARBORS    CLOUDY    55  52  88 E3        30.10F
GRAND MARAIS     N/A     57  48  72 S10       30.14R
G MARAIS ARPRT CLOUDY    48  45  87 SE5       30.14R
$$
MNZ029>031-032-039>041-046>048-054>057-064-181600-
   West Central Minnesota

CITY           SKY/WX    TMP DP  RH WIND       PRES   REMARKS
FERGUS FALLS   CLOUDY    61  50  67 SE12      29.96S
WHEATON        CLOUDY    59  52  77 SE13      29.95F
MORRIS         CLOUDY    61  54  77 SE15      29.96S
ALEXANDRIA     CLOUDY    57  50  77 SE13      30.01S
ELBOW LAKE     CLOUDY    58  51  77 SE16      29.97S
WADENA         CLOUDY    55  46  71 SE13      29.99F
GLENWOOD       CLOUDY    55  52  88 SE13G20   30.01S
APPLETON       CLOUDY    59  54  82 SE12G20   29.96S
BENSON         RAIN      57  54  88 S13G18    30.01S
ORTONVILLE     SUNNY     61  52  72 NE14      29.95R
MADISON        CLOUDY    61  61 100 SE13      29.96S
WILLMAR        DRIZZLE   55  52  88 SE9       30.03S
$$
MNZ033>034-036-042>043-049>051-058-059-181600-
   Central Minnesota

CITY           SKY/WX    TMP DP  RH WIND       PRES   REMARKS
ST CLOUD       CLOUDY    55  52  89 E3        30.06R
PAYNESVILLE    CLOUDY    57  51  80 S8        30.05R
AITKIN         CLOUDY    55  46  71 SE10      30.06S
PINE RIVER     CLOUDY    55  48  76 SE10      30.07S
BRAINERD       CLOUDY    56  47  71 SE9       30.05F
STAPLES        CLOUDY    57  46  67 SE8       30.02S
LONG PRAIRIE   CLOUDY    55  48  76 E12       30.03S
LITTLE FALLS   CLOUDY    55  43  62 SE9       30.04S
LITCHFIELD     RAIN      55  54  94 SE8       30.05R
BUFFALO        CLOUDY    57  49  76 SE7       30.06S
MAPLE LAKE     CLOUDY    57  52  82 S5        30.06R
HUTCHINSON     LGT RAIN  55  54  96 SE6       30.06S
$$
MNZ037-044-045-052-053-181600-
   East Central Minnesota

CITY           SKY/WX    TMP DP  RH WIND       PRES   REMARKS
PRINCETON      CLOUDY    55  52  88 E5        30.07S
MORA           PTSUNNY   50  46  87 SE3       30.10S
CAMBRIDGE      CLOUDY    57  46  67 SE5       30.07F
RUSH CITY      PTSUNNY   52  48  87 CALM      30.09S
MOOSE LAKE     PTSUNNY   52  46  82 CALM      30.08S
HINCKLEY       FAIR      52  50  93 SE5       30.10S
CLOQUET        CLOUDY    52  45  76 SE3       30.10S
MCGREGOR       CLOUDY    54  46  76 SE7       30.08S
$$
MNZ071>073-080-081-089-090-097-098-181600-
   Southwest Minnesota

CITY           SKY/WX    TMP DP  RH WIND       PRES   REMARKS
MONTEVIDEO     CLOUDY    55  55 100 S10G16    29.99R
GRANITE FALLS  LGT RAIN  57  55  95 SE13      30.00F
CANBY          CLOUDY    59  56  89 E8        29.97R
MARSHALL       CLOUDY    58  56  93 SE12      29.98F
REDWOOD FALLS  CLOUDY    56  52  86 SE17G23   30.01S
OLIVIA         CLOUDY    54  52  94 SE15G21   30.01S
PIPESTONE      LGT RAIN  57  55  94 S5        29.97F
WORTHINGTON    LGT RAIN  55  54  96 SE13G20   29.99F
JACKSON        LGT RAIN  54  54 100 E13       30.02F
TRACY          LGT RAIN  58  57  96 S10       29.99S
SLAYTON        RAIN      56  55  94 SE6       30.00S
$$
MNZ065>067-074>077-082>085-091>093-181600-
   South Central Minnesota

CITY           SKY/WX    TMP DP  RH WIND       PRES   REMARKS
MANKATO        RAIN      55  52  89 S7        30.08R
NEW ULM        LGT RAIN  54  52  94 SE15      30.02F
ST JAMES       RAIN      54  54 100 E15       30.03F
FAIRMONT       LGT RAIN  55  54  94 SE9       30.04F
GLENCOE        LGT RAIN  55  55  99 SE5       30.05R
FARIBAULT      DRIZZLE   55  52  88 SE6       30.08S
OWATONNA       LGT RAIN  55  52  88 SE3       30.08S
WASECA         RAIN      52  50  93 CALM      30.10R
ALBERT LEA     CLOUDY    59  54  82 SE8       30.08R
$$
MNZ078>079-086>088-094>096-181600-
   Southeast Minnesota

CITY           SKY/WX    TMP DP  RH WIND       PRES   REMARKS
ROCHESTER      LGT RAIN  54  51  90 E6        30.10F
RED WING       PTSUNNY   57  48  72 E6        30.09F
STANTON        RAIN      56  51  84 S6        30.07F
DODGE CENTER   LGT RAIN  54  50  87 E7        30.08F
WINONA         CLOUDY    55  50  82 CALM      30.13F
AUSTIN         CLOUDY    55  52  88 SE7       30.08S
PRESTON        CLOUDY    57  48  72 SE6       30.12F
$$
ABBREVIATIONS USED IN REMARKS
   TC - TEMPERATURES IN CELSIUS
  WCI - WIND CHILL INDEX
   HX - HEAT INDEX
  VSB - VISIBILITY
$$




USA.gov is the U.S. government's official web portal to all federal, state and local government web resources and services.